Radiation Dose at Monitoring Post of Fukushima Daini Nuclear Power Station
Date,Time,MP-1(microSv/h),MP-2(microSv/h),MP-3(microSv/h),MP-4(microSv/h),MP-5(microSv/h),MP-6(microSv/h),MP-7(microSv/h),Wind Direction,Wind Velocity(m/s),Rain
2017/10/08,00:00,0.334,0.208,0.340,0.322,0.308,0.169,0.100,north,4.5,No
2017/10/08,00:10,0.332,0.208,0.339,0.319,0.311,0.169,0.099,north,4.9,No
2017/10/08,00:20,0.333,0.207,0.338,0.323,0.307,0.167,0.100,north,3.9,No
2017/10/08,00:30,0.333,0.209,0.339,0.318,0.311,0.169,0.100,north,3.1,No
2017/10/08,00:40,0.333,0.208,0.338,0.320,0.309,0.168,0.100,north-northeast,3.2,No
2017/10/08,00:50,0.335,0.208,0.340,0.320,0.312,0.168,0.100,north-northeast,3.1,No
2017/10/08,01:00,0.333,0.206,0.340,0.320,0.308,0.167,0.100,north,5.0,No
2017/10/08,01:10,0.334,0.209,0.340,0.320,0.310,0.170,0.098,north,4.6,No
2017/10/08,01:20,0.331,0.207,0.339,0.319,0.309,0.167,0.100,north,5.1,No
2017/10/08,01:30,0.335,0.209,0.339,0.320,0.311,0.169,0.100,north,4.5,No
2017/10/08,01:40,0.333,0.208,0.339,0.321,0.311,0.167,0.100,north,4.2,No
2017/10/08,01:50,0.334,0.209,0.341,0.321,0.309,0.168,0.100,north,4.7,No
2017/10/08,02:00,0.333,0.209,0.340,0.320,0.312,0.169,0.100,north,4.5,No
2017/10/08,02:10,0.335,0.209,0.341,0.323,0.309,0.168,0.101,north,3.9,No
2017/10/08,02:20,0.334,0.208,0.340,0.320,0.312,0.170,0.100,north,4.8,No
2017/10/08,02:30,0.335,0.209,0.340,0.323,0.310,0.169,0.101,north-northwest,3.9,No
2017/10/08,02:40,0.333,0.209,0.338,0.320,0.313,0.169,0.100,north,3.9,No
2017/10/08,02:50,0.333,0.210,0.341,0.322,0.309,0.168,0.100,north,3.6,No
2017/10/08,03:00,0.333,0.208,0.338,0.319,0.313,0.168,0.099,north,3.3,No
2017/10/08,03:10,0.333,0.209,0.341,0.322,0.309,0.168,0.100,north-northwest,2.6,No
2017/10/08,03:20,0.335,0.208,0.339,0.321,0.312,0.169,0.100,north-northwest,2.8,No
2017/10/08,03:30,0.334,0.209,0.341,0.322,0.312,0.168,0.101,north-northwest,2.3,No
2017/10/08,03:40,0.333,0.208,0.339,0.320,0.313,0.169,0.100,northwest,1.7,No
2017/10/08,03:50,0.335,0.209,0.341,0.322,0.311,0.169,0.100,northwest,1.4,No
2017/10/08,04:00,0.334,0.208,0.340,0.320,0.311,0.169,0.100,north,1.6,No
2017/10/08,04:10,0.333,0.208,0.340,0.322,0.308,0.169,0.100,north-northeast,1.2,No
2017/10/08,04:20,0.334,0.208,0.340,0.320,0.311,0.168,0.100,north-northeast,0.6,No
2017/10/08,04:30,0.335,0.208,0.341,0.321,0.310,0.169,0.100,northeast,1.6,No
2017/10/08,04:40,0.335,0.210,0.340,0.320,0.312,0.168,0.100,north-northeast,2.2,No
2017/10/08,04:50,0.334,0.208,0.340,0.323,0.310,0.169,0.101,north-northeast,3.0,No
2017/10/08,05:00,0.334,0.208,0.340,0.320,0.312,0.168,0.101,north,3.3,No
2017/10/08,05:10,0.334,0.208,0.339,0.322,0.311,0.168,0.100,north,4.9,No
2017/10/08,05:20,0.335,0.209,0.341,0.320,0.311,0.169,0.100,north,4.6,No
2017/10/08,05:30,0.334,0.210,0.339,0.322,0.310,0.168,0.100,north-northeast,3.6,No
2017/10/08,05:40,0.334,0.208,0.343,0.321,0.313,0.168,0.100,north-northeast,3.3,No
2017/10/08,05:50,0.336,0.210,0.339,0.321,0.309,0.170,0.101,north-northeast,3.4,No
2017/10/08,06:00,0.335,0.209,0.342,0.321,0.313,0.169,0.100,north,4.0,No
2017/10/08,06:10,0.337,0.209,0.339,0.322,0.311,0.169,0.101,north,5.0,No
2017/10/08,06:20,0.333,0.209,0.342,0.323,0.312,0.169,0.101,north,5.0,No
2017/10/08,06:30,0.336,0.209,0.340,0.321,0.309,0.168,0.101,north,5.2,No
2017/10/08,06:40,0.334,0.210,0.343,0.322,0.313,0.170,0.101,north,5.0,No
2017/10/08,06:50,0.336,0.209,0.339,0.320,0.310,0.169,0.101,north,4.7,No
2017/10/08,07:00,0.332,0.209,0.342,0.322,0.312,0.169,0.100,north,5.0,No
2017/10/08,07:10,0.334,0.207,0.339,0.321,0.308,0.169,0.100,north,5.6,No
2017/10/08,07:20,0.333,0.209,0.341,0.321,0.312,0.169,0.101,north,6.4,No
2017/10/08,07:30,0.335,0.209,0.337,0.322,0.310,0.169,0.100,north-northwest,5.7,No
2017/10/08,07:40,0.334,0.209,0.341,0.318,0.311,0.169,0.100,north,4.8,No
2017/10/08,07:50,0.334,0.209,0.339,0.321,0.311,0.170,0.100,north-northeast,2.2,No
2017/10/08,08:00,0.333,0.209,0.342,0.322,0.311,0.168,0.099,north-northeast,2.8,No
2017/10/08,08:10,0.333,0.207,0.338,0.319,0.313,0.170,0.100,north-northeast,4.5,No
2017/10/08,08:20,0.334,0.210,0.341,0.320,0.308,0.168,0.099,north-northeast,4.8,No
2017/10/08,08:30,0.331,0.208,0.338,0.320,0.312,0.169,0.098,northeast,4.7,No
2017/10/08,08:40,0.334,0.209,0.340,0.320,0.310,0.169,0.099,north-northeast,4.2,No
2017/10/08,08:50,0.333,0.207,0.338,0.323,0.310,0.167,0.100,north-northeast,4.2,No
2017/10/08,09:00,0.335,0.208,0.338,0.318,0.312,0.169,0.099,north,4.5,No
2017/10/08,09:10,0.332,0.209,0.340,0.322,0.306,0.168,0.101,north,3.5,No
2017/10/08,09:20,0.331,0.207,0.337,0.323,0.311,0.167,0.099,north-northwest,3.7,No
2017/10/08,09:30,0.335,0.208,0.342,0.319,0.311,0.167,0.099,north,3.4,No
2017/10/08,09:40,0.332,0.208,0.339,0.318,0.308,0.169,0.099,north,3.6,No
2017/10/08,09:50,0.329,0.207,0.338,0.317,0.308,0.169,0.098,north-northeast,4.3,No
2017/10/08,10:00,0.330,0.207,0.340,0.319,0.311,0.167,0.098,north-northeast,5.8,No
2017/10/08,10:10,0.334,0.208,0.338,0.322,0.313,0.167,0.099,north-northeast,6.7,No
2017/10/08,10:20,0.334,0.209,0.341,0.320,0.308,0.169,0.100,north-northeast,6.9,No
2017/10/08,10:30,0.331,0.207,0.338,0.319,0.310,0.169,0.100,north-northeast,5.8,No
2017/10/08,10:40,0.331,0.208,0.338,0.322,0.313,0.169,0.099,north-northeast,7.3,No
2017/10/08,10:50,0.336,0.209,0.341,0.323,0.310,0.167,0.099,north-northeast,5.7,No
2017/10/08,11:00,0.335,0.208,0.339,0.319,0.308,0.169,0.098,north-northeast,3.9,No
2017/10/08,11:10,0.331,0.207,0.335,0.320,0.307,0.169,0.099,north-northeast,4.6,No
2017/10/08,11:20,0.332,0.206,0.339,0.319,0.307,0.169,0.100,north-northeast,4.8,No
2017/10/08,11:30,0.336,0.210,0.342,0.319,0.310,0.168,0.099,northeast,5.1,No
2017/10/08,11:40,0.336,0.208,0.339,0.320,0.314,0.168,0.099,northeast,4.3,No
2017/10/08,11:50,0.333,0.208,0.336,0.324,0.311,0.168,0.099,northeast,4.5,No
2017/10/08,12:00,0.332,0.206,0.339,0.322,0.309,0.169,0.099,northeast,3.9,No
2017/10/08,12:10,0.335,0.207,0.341,0.321,0.308,0.168,0.099,north-northeast,4.7,No
2017/10/08,12:20,0.337,0.209,0.339,0.319,0.308,0.168,0.100,northeast,4.2,No
2017/10/08,12:30,0.333,0.209,0.338,0.319,0.312,0.169,0.100,north-northeast,4.6,No
2017/10/08,12:40,0.331,0.208,0.337,0.320,0.314,0.170,0.099,north-northeast,3.7,No
2017/10/08,12:50,0.337,0.206,0.336,0.319,0.312,0.170,0.100,northeast,2.8,No
2017/10/08,13:00,0.335,0.210,0.340,0.323,0.310,0.169,0.099,north-northeast,3.6,No
2017/10/08,13:10,0.332,0.211,0.342,0.323,0.309,0.170,0.101,northeast,3.1,No
2017/10/08,13:20,0.336,0.208,0.339,0.322,0.311,0.170,0.100,east-northeast,2.8,No
2017/10/08,13:30,0.336,0.209,0.338,0.321,0.313,0.169,0.099,northeast,2.4,No
2017/10/08,13:40,0.332,0.210,0.343,0.325,0.311,0.169,0.101,east-northeast,2.5,No
2017/10/08,13:50,0.337,0.209,0.341,0.322,0.310,0.168,0.100,northeast,2.8,No
2017/10/08,14:00,0.335,0.208,0.338,0.321,0.314,0.170,0.099,northeast,2.4,No
2017/10/08,14:10,0.334,0.210,0.342,0.325,0.311,0.168,0.101,north-northeast,1.3,No
2017/10/08,14:20,0.337,0.207,0.339,0.323,0.309,0.168,0.099,north-northeast,1.6,No
2017/10/08,14:30,0.336,0.210,0.340,0.321,0.313,0.169,0.099,northeast,2.5,No
2017/10/08,14:40,0.332,0.210,0.343,0.323,0.312,0.170,0.100,east-northeast,1.3,No
2017/10/08,14:50,0.337,0.208,0.339,0.323,0.310,0.169,0.100,southeast,1.1,No
2017/10/08,15:00,0.336,0.210,0.343,0.321,0.313,0.169,0.099,southeast,0.7,No
2017/10/08,15:10,0.333,0.210,0.342,0.324,0.311,0.169,0.101,south,1.3,No
2017/10/08,15:20,0.337,0.207,0.339,0.322,0.310,0.169,0.100,southeast,1.0,No
2017/10/08,15:30,0.336,0.209,0.343,0.323,0.312,0.170,0.099,southeast,1.2,No
2017/10/08,15:40,0.334,0.209,0.341,0.325,0.313,0.169,0.101,south,1.3,No
2017/10/08,15:50,0.336,0.210,0.340,0.322,0.310,0.169,0.100,south,1.1,No
2017/10/08,16:00,0.333,0.211,0.341,0.323,0.315,0.170,0.101,south-southeast,0.8,No
2017/10/08,16:10,0.337,0.209,0.339,0.323,0.313,0.169,0.100,south-southwest,0.5,No
2017/10/08,16:20,0.335,0.210,0.343,0.322,0.311,0.170,0.100,south,0.7,No
2017/10/08,16:30,0.335,0.209,0.342,0.325,0.315,0.170,0.100,-,CALM,No
2017/10/08,16:40,0.336,0.212,0.341,0.322,0.311,0.170,0.100,south-southeast,1.4,No
2017/10/08,16:50,0.333,0.209,0.341,0.325,0.314,0.169,0.100,south-southeast,1.6,No
2017/10/08,17:00,0.337,0.210,0.342,0.324,0.312,0.169,0.100,south,1.7,No
2017/10/08,17:10,0.332,0.209,0.342,0.324,0.312,0.169,0.100,south,1.4,No
2017/10/08,17:20,0.337,0.210,0.340,0.324,0.313,0.169,0.100,south-southeast,1.2,No
2017/10/08,17:30,0.334,0.209,0.342,0.323,0.311,0.169,0.100,south,0.9,No
2017/10/08,17:40,0.338,0.210,0.340,0.323,0.313,0.169,0.100,southwest,0.8,No
2017/10/08,17:50,0.333,0.209,0.343,0.322,0.310,0.169,0.100,west,1.0,No
2017/10/08,18:00,0.336,0.209,0.341,0.326,0.315,0.170,0.100,west-southwest,0.8,No
2017/10/08,18:10,0.335,0.210,0.343,0.323,0.309,0.169,0.100,west-southwest,0.9,No
2017/10/08,18:20,0.337,0.210,0.341,0.323,0.314,0.170,0.100,-,CALM,No
2017/10/08,18:30,0.335,0.210,0.342,0.321,0.312,0.169,0.100,-,CALM,No
2017/10/08,18:40,0.338,0.209,0.340,0.325,0.312,0.170,0.099,-,CALM,No
2017/10/08,18:50,0.334,0.211,0.342,0.322,0.312,0.168,0.100,south-southeast,0.5,No
2017/10/08,19:00,0.337,0.209,0.339,0.326,0.313,0.170,0.101,southwest,2.8,No
2017/10/08,19:10,0.334,0.209,0.343,0.322,0.312,0.170,0.101,south-southwest,1.1,Yes
2017/10/08,19:20,0.337,0.210,0.341,0.325,0.313,0.170,0.100,-,CALM,No
2017/10/08,19:30,0.334,0.210,0.343,0.323,0.310,0.170,0.099,south,1.9,No
2017/10/08,19:40,0.338,0.211,0.340,0.325,0.313,0.169,0.100,south,1.9,No
2017/10/08,19:50,0.335,0.210,0.343,0.323,0.310,0.170,0.100,south,1.4,No
2017/10/08,20:00,0.337,0.210,0.340,0.324,0.315,0.170,0.100,southwest,0.8,No
2017/10/08,20:10,0.334,0.209,0.342,0.323,0.310,0.170,0.100,south,1.6,No
2017/10/08,20:20,0.337,0.210,0.339,0.326,0.312,0.170,0.102,south-southwest,1.1,No
2017/10/08,20:30,0.336,0.210,0.343,0.323,0.310,0.169,0.100,southwest,1.5,No
2017/10/08,20:40,0.335,0.209,0.342,0.324,0.312,0.170,0.102,southwest,1.7,No
2017/10/08,20:50,0.336,0.211,0.342,0.324,0.312,0.171,0.101,southwest,1.5,No
2017/10/08,21:00,0.335,0.210,0.341,0.325,0.314,0.170,0.101,south-southwest,1.0,No
2017/10/08,21:10,0.336,0.210,0.343,0.323,0.310,0.171,0.101,south,0.8,No
2017/10/08,21:20,0.335,0.209,0.343,0.324,0.313,0.170,0.102,south,1.1,No
2017/10/08,21:30,0.337,0.209,0.342,0.323,0.311,0.170,0.101,south-southwest,1.2,No
2017/10/08,21:40,0.334,0.211,0.342,0.324,0.313,0.170,0.100,south,0.8,No
2017/10/08,21:50,0.336,0.209,0.342,0.324,0.313,0.170,0.101,south,0.9,No
2017/10/08,22:00,0.334,0.210,0.343,0.323,0.314,0.170,0.101,-,CALM,No
2017/10/08,22:10,0.337,0.209,0.340,0.325,0.312,0.170,0.101,south,1.4,No
2017/10/08,22:20,0.334,0.209,0.343,0.323,0.313,0.169,0.101,south-southwest,0.7,No
2017/10/08,22:30,0.336,0.211,0.340,0.324,0.312,0.170,0.101,south-southwest,1.2,No
2017/10/08,22:40,0.335,0.210,0.344,0.323,0.312,0.169,0.102,south-southwest,1.1,No
2017/10/08,22:50,0.336,0.210,0.343,0.325,0.313,0.170,0.100,south-southwest,0.8,No
2017/10/08,23:00,0.335,0.210,0.344,0.323,0.310,0.170,0.101,south-southwest,0.9,No
2017/10/08,23:10,0.334,0.209,0.343,0.324,0.314,0.171,0.101,south,0.8,No
2017/10/08,23:20,0.338,0.210,0.342,0.324,0.313,0.170,0.102,south,0.9,No
2017/10/08,23:30,0.335,0.210,0.343,0.324,0.314,0.169,0.103,south,1.0,No
2017/10/08,23:40,0.337,0.210,0.341,0.325,0.311,0.170,0.101,south-southwest,1.1,No
2017/10/08,23:50,0.334,0.211,0.343,0.324,0.314,0.170,0.102,southwest,0.9,No
